[[{"header":{"parameterUnit":"m.s-1","parameterCategory":1,"la1":30.2991,"la2":30.254,"lo1":-89.0895,"lo2":-89.0444,"dy":0.0017,"dx":0.0017,"nx":28,"ny":28,"refTime":"2025-03-16T03:00:00:Z","depth":0,"parameterNumber":2,"parameterNumberName":"U-component_of_WINDS"},"data":[0,0,0,0,0,0,0,0,0,0,0,0,0,0,0,0,0,0,0,0,0,0,0,0,0,0,0,0,0,0,0,0,0,0,0,0,0,0,0,0,0,0,0,0,0,0,0,0,0,0,0,0,0,0,0,0,0,0,1.1925,1.1922,0,1.1572,1.1568,1.1564,1.1375,1.1374,1.1374,1.1374,1.1006,1.0997,1.0988,0,0,0,0,0,0,0,0,0,0,0,0,0,1.2431,1.2423,1.1926,1.1921,1.1917,1.1573,1.1568,1.1563,1.1375,1.1374,1.1374,1.1374,1.1009,1.0998,1.0987,0,0,0,0,0,0,0,0,0,0,0,0,0,1.2158,1.242,1.1927,1.1782,1.1765,1.1574,1.1568,1.1562,1.1375,1.1374,1.1374,1.1373,1.1013,1.0999,1.0985,1.0909,0,0,1.0942,1.0936,0,0,0,0,0,0,0,0,1.2174,1.214,1.1807,1.1791,1.1772,1.1517,1.1611,1.1343,1.1375,1.1523,1.1374,1.1373,1.1176,1.1149,1.1083,1.0892,1.0876,1.0941,1.0932,1.0926,1.0922,0,0,0,0,0,0,0,1.2193,1.2154,1.1786,1.1803,1.1781,1.1732,1.1693,1.156,1.1357,1.151,1.1495,1.1457,1.1166,1.1098,1.1073,1.0871,1.0941,1.0928,1.092,1.0914,1.0599,1.0599,0,0,0,0,0,0,1.2236,1.2171,1.1797,1.1775,1.1976,1.1724,1.168,1.16,1.1358,1.1321,1.1457,1.1449,1.1122,1.109,1.106,1.0954,1.0926,1.0913,1.0905,1.0598,1.0599,1.0599,0,0,0,0,0,0,1.2248,1.2204,1.1811,1.1969,1.1915,1.1716,1.1627,1.1593,1.1524,1.1318,1.1281,1.1425,1.112,1.108,1.0948,1.0939,1.0906,1.0894,1.0598,1.0598,1.0599,1.0744,0,0,0,0,0,0,1.2263,1.221,1.218,1.197,1.1908,1.1708,1.1627,1.1587,1.1501,1.1486,1.1277,1.1242,1.1117,1.0971,1.0934,1.0919,1.0883,1.0598,1.0598,1.0599,1.0739,1.0749,1.0758,0,0,0,0,0,1.2282,1.2234,1.218,1.2136,1.1867,1.1708,1.1672,1.153,1.1501,1.1468,1.1336,1.1249,1.0946,1.0959,1.0916,1.0896,1.0598,1.0598,1.0599,1.0735,1.0747,1.0757,0,0,0,0,0,0,1.2446,1.2204,1.2141,1.2024,1.1889,1.1676,1.1631,1.1548,1.1416,1.1408,1.1236,1.119,1.1075,1.0972,1.099,1.081,1.0763,1.0755,1.0881,1.0891,1.09,1.0927,1.0871,0,0,0,0,0,1.247,1.2363,1.2156,1.2072,1.2008,1.1832,1.1757,1.166,1.1512,1.1453,1.1311,1.1168,1.1041,1.096,1.0831,1.0724,1.0675,1.0689,1.0699,1.0707,1.0702,1.0636,1.064,1.0599,1.0599,1.0599,0,0,1.2515,1.2369,1.2312,1.2102,1.1985,1.1877,1.1785,1.1673,1.1591,1.1435,1.1303,1.1194,1.1023,1.0904,1.0844,1.0815,1.0702,1.0707,1.0716,1.0705,1.0637,1.0641,1.0644,1.06,1.06,1.0599,0,0,1.2543,1.2423,1.234,1.2226,1.2051,1.1935,1.1916,1.1716,1.1638,1.1504,1.1384,1.1282,1.1067,1.095,1.0863,1.0848,1.0762,1.0811,1.0859,1.0797,1.08,1.0802,1.0796,1.0796,1.0806,1.0807,1.0807,0,1.2621,1.2455,1.2308,1.2204,1.2114,1.1971,1.1885,1.178,1.1572,1.1513,1.1484,1.1211,1.1086,1.0936,1.0933,1.0868,1.0838,1.0833,1.0812,1.0812,1.0812,1.0804,1.0802,1.0814,1.0813,1.0812,1.0811,0,1.2559,1.2446,1.24,1.2205,1.211,1.2016,1.1853,1.1775,1.1686,1.1573,1.1437,1.1282,1.112,1.1077,1.0989,1.0915,1.0902,1.0845,1.0794,1.0825,1.0815,1.0811,1.0824,1.0821,1.0819,1.0817,0,0,1.2679,1.2406,1.2391,1.2301,1.2099,1.2007,1.1906,1.1749,1.1685,1.1546,1.1456,1.1278,1.1224,1.1125,1.1022,1.0968,1.0965,1.0916,1.0909,1.093,1.0873,1.0917,1.0916,1.0908,1.0907,1.0906,1.0887,0,1.2677,1.2491,1.2356,1.2221,1.2114,1.1977,1.1888,1.1754,1.1645,1.1537,1.1415,1.1292,1.123,1.1169,1.111,1.0979,1.0951,1.0978,1.082,1.0816,1.0866,1.091,1.0956,1.0946,1.0882,1.0881,1.0881,0,1.2649,1.2518,1.2374,1.2183,1.2133,1.2057,1.1902,1.1801,1.1645,1.1569,1.146,1.1355,1.124,1.1202,1.104,1.1062,1.0989,1.0915,1.0911,1.0889,1.085,1.0889,1.0939,1.0938,1.0873,1.0874,1.0874,0,1.2751,1.2537,1.2423,1.235,1.2126,1.2075,1.1978,1.1822,1.1737,1.1601,1.1544,1.1396,1.1315,1.1203,1.106,1.1045,1.0913,1.0862,1.0845,1.0849,1.0822,1.0825,1.086,1.0778,1.0778,1.0778,1.0778,0,1.2762,1.2678,1.2466,1.2396,1.2298,1.2143,1.205,1.1941,1.1804,1.1708,1.158,1.1493,1.1311,1.1201,1.1088,1.0971,1.0935,1.087,1.084,1.088,1.0889,1.0829,1.0826,1.0778,1.0778,1.0778,1.0778,0,1.2857,1.2712,1.2578,1.2377,1.2325,1.2262,1.2088,1.2013,1.1899,1.178,1.1743,1.1562,1.1426,1.1273,1.1086,1.101,1.09,1.0858,1.0954,1.0937,1.0928,1.0931,1.0924,1.0915,1.0843,1.0844,1.0844,0,1.2873,1.2806,1.2599,1.2528,1.2436,1.2321,1.2234,1.2079,1.1993,1.1812,1.1759,1.1614,1.149,1.1279,1.1129,1.0985,1.0938,1.0946,1.0915,1.0957,1.0936,1.0942,1.0933,1.0954,1.0956,1.0957,1.0958,0,1.2917,1.2849,1.273,1.2586,1.2486,1.2364,1.2237,1.2185,1.2004,1.1914,1.1775,1.1679,1.1489,1.1346,1.1184,1.1081,1.0989,1.0969,1.0957,1.0997,1.1054,1.1022,1.0976,1.097,1.0968,1.0968,1.0967,1.0966,1.2972,1.2906,1.2751,1.2622,1.2511,1.2395,1.2315,1.2192,1.2074,1.1909,1.1824,1.1686,1.1531,1.1304,1.1205,1.1093,1.1063,1.1046,1.1041,1.1039,1.105,1.1074,1.1063,1.1062,1.1062,1.1061,1.1061,0,1.3008,1.2902,1.2785,1.2613,1.2511,1.2437,1.2292,1.2211,1.2092,1.1957,1.1838,1.1678,1.1539,1.138,1.123,1.1171,1.1125,1.1137,1.1139,1.1116,1.1086,1.1111,1.1177,1.1177,1.1177,1.1177,1.1177,1.1177,1.3015,1.2899,1.2813,1.2641,1.2534,1.24,1.2324,1.2216,1.2107,1.1935,1.182,1.1718,1.1571,1.141,1.1279,1.1235,1.1185,1.121,1.1154,1.1128,1.1119,1.1109,1.1132,1.1201,1.1201,1.1193,1.1193,1.1193]},{"header":{"parameterUnit":"m.s-1","parameterCategory":1,"la1":30.2991,"la2":30.254,"lo1":-89.0895,"lo2":-89.0444,"dy":0.0017,"dx":0.0017,"nx":28,"ny":28,"refTime":"2025-03-16T03:00:00:Z","depth":0,"parameterNumber":3,"parameterNumberName":"V-component_of_WINDS"},"data":[0,0,0,0,0,0,0,0,0,0,0,0,0,0,0,0,0,0,0,0,0,0,0,0,0,0,0,0,0,0,0,0,0,0,0,0,0,0,0,0,0,0,0,0,0,0,0,0,0,0,0,0,0,0,0,0,0,0,10.0236,10.024,0,10.0563,10.0567,10.057,10.0622,10.0619,10.0616,10.0614,10.0942,10.0953,10.0964,0,0,0,0,0,0,0,0,0,0,0,0,0,9.9651,9.9661,10.0236,10.024,10.0244,10.0562,10.0567,10.0571,10.0623,10.0619,10.0616,10.0612,10.0938,10.0951,10.0965,0,0,0,0,0,0,0,0,0,0,0,0,0,9.9934,9.9665,10.0235,10.0308,10.0318,10.0561,10.0567,10.0572,10.0623,10.0619,10.0615,10.0611,10.0934,10.095,10.0967,10.1158,0,0,10.1019,10.1027,0,0,0,0,0,0,0,0,9.9917,9.9955,10.0293,10.0304,10.0315,10.0547,10.0481,10.0769,10.0624,10.0507,10.0614,10.0609,10.0814,10.084,10.0911,10.1174,10.1188,10.1021,10.1031,10.1038,10.1043,0,0,0,0,0,0,0,9.9898,9.9941,10.0365,10.0298,10.0312,10.0323,10.0358,10.0536,10.068,10.0517,10.0522,10.056,10.0819,10.0894,10.0919,10.1193,10.102,10.1035,10.1046,10.1053,10.163,10.1634,0,0,0,0,0,0,9.9866,9.9924,10.0355,10.0375,10.0102,10.0337,10.0376,10.0477,10.0678,10.0705,10.0563,10.0561,10.0867,10.0899,10.0931,10.117,10.1038,10.1054,10.1064,10.1625,10.1631,10.1636,0,0,0,0,0,0,9.9853,9.9904,10.0341,10.0151,10.0208,10.0351,10.0464,10.0486,10.0562,10.0714,10.0739,10.0614,10.0865,10.0906,10.1102,10.1181,10.1062,10.1078,10.1619,10.1627,10.1633,10.1647,0,0,0,0,0,0,9.9836,9.9899,9.9975,10.0153,10.0218,10.051,10.0469,10.0495,10.0592,10.0592,10.0768,10.0793,10.0865,10.1076,10.1119,10.1203,10.1091,10.1612,10.1622,10.1631,10.164,10.1654,10.1666,0,0,0,0,0,9.9815,9.9964,9.9978,10.003,10.0316,10.0514,10.0551,10.0632,10.0598,10.0674,10.0772,10.0788,10.1165,10.1096,10.1144,10.1234,10.1608,10.1619,10.163,10.1635,10.1652,10.1666,0,0,0,0,0,0,9.9789,9.9988,10.0007,10.0218,10.0349,10.0522,10.0622,10.0648,10.079,10.0784,10.0876,10.0915,10.1107,10.119,10.1109,10.1431,10.1383,10.1405,10.137,10.1387,10.14,10.1377,10.1105,0,0,0,0,0,9.9808,9.9955,10.012,10.029,10.0355,10.0477,10.0566,10.0618,10.0756,10.0811,10.0923,10.1055,10.1204,10.13,10.1445,10.1652,10.1691,10.1737,10.175,10.176,10.1778,10.1895,10.1918,10.1674,10.1674,10.1673,0,0,9.9849,9.9976,10.0062,10.0288,10.0396,10.0544,10.0523,10.068,10.0791,10.0834,10.1028,10.1114,10.1267,10.1469,10.1564,10.1545,10.1854,10.1775,10.1782,10.1795,10.1909,10.1932,10.1952,10.1681,10.168,10.1679,0,0,9.9999,10.0109,10.0265,10.0373,10.0537,10.0617,10.0654,10.0824,10.0884,10.1079,10.1116,10.1247,10.15,10.1609,10.1697,10.1888,10.1908,10.1932,10.2001,10.2113,10.2133,10.215,10.2219,10.2243,10.1949,10.1949,10.195,0,10.0028,10.0255,10.034,10.0497,10.0595,10.0644,10.0801,10.0901,10.1102,10.1169,10.1144,10.1465,10.1571,10.18,10.1847,10.1916,10.1961,10.1914,10.2123,10.2142,10.2159,10.2226,10.2252,10.1951,10.1951,10.1951,10.1951,0,10.0284,10.044,10.0545,10.0742,10.0852,10.1007,10.1114,10.1215,10.1256,10.1338,10.1535,10.1665,10.1838,10.1895,10.1936,10.213,10.2113,10.2105,10.206,10.2183,10.2248,10.2274,10.1954,10.1954,10.1953,10.1953,0,0,10.0428,10.067,10.0708,10.0798,10.0982,10.1104,10.1261,10.1432,10.1517,10.1653,10.1788,10.2001,10.1995,10.2095,10.2148,10.2247,10.2391,10.2227,10.2231,10.2254,10.2615,10.2621,10.265,10.2405,10.241,10.2414,10.2602,0,10.0602,10.0887,10.0968,10.1208,10.1353,10.1401,10.1537,10.1664,10.1744,10.1878,10.1965,10.2117,10.2096,10.2157,10.2256,10.2353,10.2465,10.234,10.253,10.2536,10.2493,10.2684,10.2692,10.2863,10.2628,10.2632,10.2635,0,10.0843,10.0988,10.1243,10.1409,10.1473,10.1595,10.1759,10.1886,10.203,10.2081,10.2194,10.2238,10.2402,10.2346,10.2574,10.2487,10.2569,10.2628,10.2636,10.2659,10.2594,10.2713,10.292,10.2946,10.2676,10.2673,10.267,0,10.0925,10.1183,10.137,10.1445,10.1643,10.1728,10.1814,10.1954,10.2052,10.2193,10.2258,10.2416,10.2502,10.2623,10.2708,10.2659,10.2928,10.2879,10.2975,10.2973,10.3032,10.3027,10.3256,10.3081,10.308,10.308,10.3079,0,10.1112,10.1266,10.1409,10.1524,10.1698,10.1788,10.1957,10.2045,10.2169,10.2301,10.2349,10.2471,10.2576,10.2711,10.2778,10.2957,10.2994,10.304,10.3057,10.3038,10.3032,10.3094,10.3085,10.3087,10.3085,10.3084,10.3083,0,10.1234,10.1336,10.1543,10.1714,10.176,10.1881,10.2027,10.2139,10.2221,10.2387,10.243,10.2558,10.272,10.2817,10.302,10.3065,10.3264,10.3274,10.3216,10.3224,10.3315,10.3306,10.3594,10.3637,10.343,10.3432,10.3433,0,10.1348,10.1468,10.1653,10.1746,10.1834,10.1982,10.2083,10.2174,10.2277,10.245,10.2542,10.2707,10.2845,10.3101,10.3211,10.3367,10.3382,10.3472,10.3406,10.3383,10.3386,10.3379,10.3392,10.3484,10.3486,10.3487,10.3488,0,10.1539,10.1584,10.1728,10.1891,10.2011,10.2142,10.2273,10.2346,10.2459,10.2572,10.274,10.2846,10.3056,10.3219,10.3385,10.3471,10.3499,10.3508,10.3539,10.3522,10.3484,10.3508,10.3249,10.3502,10.35,10.3499,10.3499,10.3498,10.1663,10.1772,10.192,10.2079,10.2188,10.2309,10.2424,10.252,10.2663,10.2842,10.2886,10.3062,10.3203,10.3429,10.3519,10.3656,10.3642,10.3686,10.3697,10.3708,10.3711,10.346,10.3686,10.3686,10.3686,10.3685,10.3685,0,10.1858,10.1955,10.2101,10.2284,10.2409,10.2426,10.2572,10.2675,10.283,10.2959,10.3094,10.3287,10.3445,10.3567,10.373,10.3817,10.3834,10.3856,10.3852,10.3872,10.3714,10.3672,10.384,10.384,10.384,10.384,10.384,10.384,10.1975,10.2162,10.2224,10.2465,10.2561,10.2736,10.2818,10.2929,10.3033,10.3247,10.338,10.3459,10.3586,10.3758,10.3904,10.3935,10.3993,10.4015,10.4048,10.3899,10.3882,10.3867,10.3828,10.4026,10.4026,10.4195,10.4197,10.4198]}]]